User: anonymous
Location: Unspecified
(0.0000°N, 0.0000°E)
Time: 23:55:41
(UTC+00:00)
Language:

APRIZESAT 3 - Orbit

View from above orbital plane
View from above orbital plane
View from above satellite
View from above satellite

Ground track
Ground track

The orbit data is extracted from the following two-line orbital elements,

1 35686U 09041F   14114.13303244  .00002097  00000-0  23956-3 0  4949
2 35686 098.1439 059.3500 0076908 151.1564 334.9662 14.85079978256351
Epoch (UTC): 24 April 2014 03:11:34
Eccentricity: 0.0076908
inclination: 98.1439°
perigee height: 559 km
apogee height: 667 km
right ascension of ascending node: 59.3500°
argument of perigee: 151.1564°
revolutions per day: 14.85079978
mean anomaly at epoch: 334.9662°
orbit number at epoch: 25635

The dashed part of the orbit path shows where the satellite is in the earth's shadow,  

DLR